Home   Weather   Kalgoorlie   Past weeks
Flag for Australia

Past Weather in Kalgoorlie, Western Australia, Australia — Yesterday and Last 2 Weeks

Now
63 °F

Overcast.


Feels Like: 63 °F
Forecast: 62 / 45 °F
Wind: 14 mph from West

Location: Kalgoorlie Boulder Amo

Current Time: Jul 21, 2019 at 2:44:46 pm

Latest Report: Jul 21, 2019 at 2:00 pm


Visibility: N/A

Pressure: 30.01 "Hg

Humidity: 56%

Dew Point: 46 °F

Location of KalgoorlieLocation

Past Weather in Kalgoorlie — Graph

°F

Kalgoorlie Temperature Yesterday

Maximum temperature yesterday: 59 °F (at 12:00 am)
Minimum temperature yesterday: 43 °F (at 11:30 pm)
Average temperature yesterday: 53 °F

High & Low Weather Summary for the Past Weeks

 TemperatureHumidityPressure
High75 °F (Jul 19, 1:05 pm)100% (Jul 7, 5:00 am)30.63 "Hg (Jul 7, 5:00 am)
Low36 °F (Jul 7, 6:30 am)10% (Jul 19, 3:30 pm)29.74 "Hg (Jul 19, 8:30 pm)
Average52 °F62%30.27 "Hg
* Reported Jul 6 1:00 pm — Jul 21 1:30 pm, Kalgoorlie. Weather by CustomWeather, © 2019

Note: Actual official high and low records may vary slightly from our data, if they occured in-between our weather recording intervals... More about our weather records

Advertising

Kalgoorlie Weather History for the Previous 24 Hours

Scroll right to see more
 ConditionsComfort  
Time TempWeatherWind HumidityBarometerVisibility
1:30 pm
Sun, Jul 21
63 °FOvercast.16 mph52%30.01 "HgN/A
1:00 pm63 °FMore clouds than sun.14 mph56%30.01 "HgN/A
12:30 pm61 °FMostly cloudy.15 mph59%30.04 "HgN/A
12:00 pm61 °FPartly sunny.15 mph59%30.07 "HgN/A
11:30 am59 °FMostly cloudy.15 mph63%30.07 "HgN/A
11:00 am59 °FOvercast.16 mph63%30.09 "HgN/A
10:30 am59 °FPartly sunny.16 mph63%30.09 "HgN/A
10:00 am57 °FPartly sunny.10 mph67%30.09 "HgN/A
9:30 am55 °FPartly sunny.12 mph67%30.12 "HgN/A
9:00 am52 °FSunny.12 mph77%30.09 "HgN/A
8:00 am46 °FSunny.9 mph87%30.09 "HgN/A
7:30 am43 °FSunny.9 mph93%30.09 "HgN/A
7:00 am41 °FSunny.9 mph93%30.09 "HgN/A
6:30 am41 °FClear.8 mph93%30.09 "HgN/A
6:00 am41 °FClear.8 mph93%30.09 "HgN/A
5:30 am41 °FClear.8 mph93%30.09 "HgN/A
5:00 am41 °FClear.8 mph93%30.09 "HgN/A
4:30 am41 °FClear.8 mph93%30.07 "HgN/A
4:00 am41 °FClear.8 mph93%30.09 "HgN/A
3:30 am41 °FClear.7 mph93%30.09 "HgN/A
3:00 am41 °FClear.8 mph87%30.09 "HgN/A
2:30 am43 °FClear.7 mph87%30.09 "HgN/A
2:00 am41 °FClear.7 mph87%30.09 "HgN/A
1:30 am43 °FClear.8 mph81%30.09 "HgN/A
1:00 am43 °FClear.8 mph81%30.09 "HgN/A
12:30 am43 °FClear.8 mph87%30.09 "HgN/A
12:00 am43 °FClear.7 mph81%30.09 "HgN/A
11:30 pm
Sat, Jul 20
43 °FClear.6 mph81%30.09 "HgN/A
11:00 pm46 °FClear.7 mph71%30.09 "HgN/A
10:30 pm48 °FClear.6 mph66%30.09 "HgN/A
10:00 pm48 °FClear.8 mph66%30.09 "HgN/A
9:30 pm48 °FClear.6 mph66%30.09 "HgN/A
9:00 pm48 °FClear.7 mph66%30.12 "HgN/A
8:30 pm50 °FPassing clouds.6 mph62%30.12 "HgN/A
8:00 pm50 °FPassing clouds.7 mph62%30.12 "HgN/A
7:30 pm52 °FClear.9 mph54%30.09 "HgN/A
7:00 pm50 °FClear.8 mph58%30.09 "HgN/A
6:30 pm52 °FClear.7 mph54%30.09 "HgN/A
6:00 pm54 °FClear.10 mph51%30.09 "HgN/A
5:30 pm55 °FClear.13 mph47%30.07 "HgN/A
5:00 pm55 °FScattered clouds.15 mph44%30.07 "HgN/A
4:30 pm57 °FScattered clouds.17 mph41%30.04 "HgN/A
4:00 pm59 °FScattered clouds.16 mph39%30.04 "HgN/A
3:30 pm59 °FSunny.17 mph39%30.01 "HgN/A
3:00 pm59 °FScattered clouds.17 mph36%30.01 "HgN/A
2:30 pm57 °FSunny.17 mph41%30.01 "HgN/A
2:00 pm57 °FScattered clouds.17 mph39%30.01 "HgN/A
Weather by CustomWeather, © 2019

See weather overview